Terminal Aerodrome Forecast
Issued by NWS Cleveland, OH

Home | Current Version | Previous Version | Graphics & Text | Print | Product List | Glossary Off
Versions: 1 2 3 4 5 6 7 8 9 10 11 12 13 14 15 16 17 18 19 20 21 22 23 24 25 26

564
FTUS41 KCLE 081159 CCA
TAFCLE
TAF COR
KCLE 081159Z 0812/0918 21004KT P6SM -RA BKN015 OVC025
     FM081400 24008KT 5SM -RA BR SCT008 OVC015
     FM081900 28008KT 4SM -RASN BR SCT006 OVC012
     FM090000 26005KT 5SM BR OVC012=

USA.gov is the U.S. government's official web portal to all federal, state and local government web resources and services.